Weather Roundup
Issued by NWS Corpus Christi, TX

Home | Current Version | Previous Version | Text Only | Print | Product List | Glossary On
Versions: 1 2 3 4 5 6 7 8 9 10 11 12 13 14 15 16 17 18 19 20 21 22 23 24 25 26 27 28 29 30 31 32 33 34 35 36 37 38 39 40 41 42 43 44 45 46 47 48 49 50
000
ASUS44 KCRP 211010
HRRCRP

SOUTH TEXAS REGIONAL WEATHER ROUNDUP
NATIONAL WEATHER SERVICE CORPUS CHRISTI TX
400 AM CST SUN DEC 21 2014


TXZ229>244-211100-
...CORPUS CHRISTI AREA OBSERVATIONS...

CITY           SKY/WX    TMP DP  RH WIND       PRES   REMARKS
CORPUS CHRISTI MOCLDY    53  50  89 NE14      30.09F
NAS CORPUS CHR CLOUDY    57  54  89 NE15      30.08F
ROCKPORT       CLOUDY    54  51  90 NE12      30.10F
KINGSVILLE NAS CLOUDY    54  53  97 N5        30.10S
ALICE          CLOUDY    54  50  86 N6        30.09F
FALFURRIAS     CLOUDY    55  50  85 N3        30.09F
$$

...VICTORIA AREA OBSERVATIONS...

CITY           SKY/WX    TMP DP  RH WIND       PRES   REMARKS
VICTORIA       CLOUDY    53  51  93 NE6       30.13F
BEEVILLE       FAIR      50  49  97 N5        30.11S
PLEASANTON     CLOUDY    53  49  86 CALM      30.13S
SAN ANTONIO    CLOUDY    52  49  89 SE5       30.11F
$$

...LAREDO AREA OBSERVATIONS...

CITY           SKY/WX    TMP DP  RH WIND       PRES   REMARKS
LAREDO         NOT AVBL
COTULLA        CLOUDY    52  47  83 S3        30.12S
DEL RIO        CLOUDY    49  46  90 SE12      30.08F
MCALLEN        CLOUDY    54  53  97 N6        30.09F FOG
HEBBRONVILLE   CLOUDY    52  50  92 NE3       30.11S FOG
$$

...OTHER TEXAS OBSERVATIONS...

CITY           SKY/WX    TMP DP  RH WIND       PRES   REMARKS
BROWNSVILLE    CLOUDY    58  55  90 NW7       30.06F
HOUSTON        CLOUDY    49  45  86 NE7       30.14F
COL. STATION   CLOUDY    49  46  90 E3        30.14F
AUSTIN         CLOUDY    50  47  89 SE5       30.12F
WACO           CLOUDY    47  45  93 SE8       30.13F FOG
FORT WORTH     CLOUDY    47  44  90 S8        30.11F
WICHITA FALLS  CLOUDY    43  39  86 SE8       30.07F
LUBBOCK        CLOUDY    42  41  96 SW14      29.95F FOG
EL PASO        MOCLDY    45  29  53 SW7       30.06R
$$

...MARINE OBSERVATIONS...

STATION/POSITION TIME  SKY/WX   TEMP    WIND        PRES    VSBY  WAVE   SWELL
                                AIR SEA DIR/SP/G                  HT/PER HT/PER
                 (UTC)          (F)     (DEG/KT/KT) (MB)    (MI)  (FT/S) (FT/S)
PORT ARANSAS     1000            56 62   20/ 15/ 16 1018.6F
BUOY 90 E PORT A 1000            62 72   20/ 14/ 17 1018.7F         4/ 7
BUOY 45 SE BAFFI 1000            65 73   30/ 17/ 19 1017.1F         4/ 7
BUOY 200 E PT IS 1000            70 73   50/ 10/ 12 1016.2F         4/ 7   3/ 7
BUOY 15 E GALVES 1000            55 64   40/ 12/ 14 1019.4F         3/ 5   2/ 7
$$


USA.gov is the U.S. government's official web portal to all federal, state and local government web resources and services.